Location: Monroe
(41.9160°N, 83.3980°W)
Time: 17:17:00
(UTC-04:00)

Daily predictions for brighter satellites

Satellite Brightness Start Highest point End
(mag) Time Altitude Azimuth Time Altitude Azimuth Time Altitude Azimuth
SL-16 R/B 2.3 21:42:56 10° NNW 21:48:39 85° ENE 21:54:20 10° SSE
Cosmos 1980 Rocket 3.7 21:44:20 10° NW 21:49:27 35° WSW 21:54:32 10° SSW
Cosmos 2360 Rocket 3.1 21:44:56 10° N 21:50:08 36° ENE 21:55:19 10° SE
Cosmos 1515 Rocket 3.7 21:47:06 10° N 21:51:30 59° E 21:55:51 10° SSE
Cosmos 1908 4.0 21:49:58 10° N 21:53:35 36° ENE 21:57:13 10° SE
Cosmos 1939 Rocket 2.8 21:49:50 10° SSE 21:53:47 75° ENE 21:57:42 10° N
AVUM R/B 4.0 21:53:16 10° SSE 21:54:56 18° ESE 21:56:42 10° ENE
In-Cosmos 22 4.3 21:50:53 10° S 21:56:39 82° E 22:02:26 10° NNE
Cosmos 2266 Rocket 4.3 21:52:02 10° SSE 21:58:04 49° E 22:04:02 10° NNE
Cosmos 1553 Rocket 4.1 21:52:04 10° N 21:58:30 90° ENE 22:04:50 10° S
Nimbus 7 Rocket 4.4 21:53:13 10° NNE 21:59:02 64° ESE 22:04:51 10° S
USA 229 DEB 3.7 21:56:52 10° SSW 22:03:41 64° ESE 22:10:35 10° NE
USA 229 3.7 21:56:59 10° SSW 22:03:47 64° ESE 22:10:42 10° NE
Meteor 2-2 Rocket 4.4 21:58:57 10° N 22:04:56 71° ENE 22:10:56 10° SSE
Cosmos 773 Rocket 4.1 22:00:25 10° NNW 22:05:35 64° ENE 22:10:40 10° SSE
MetOp-B 4.3 22:06:36 10° SSE 22:11:51 60° ENE 22:17:08 10° N
Cosmos 2151 3.4 22:10:34 10° SSE 22:14:30 41° E 22:18:28 10° NNE
Cosmos 1674 2.8 22:10:56 10° S 22:14:40 59° E 22:18:29 10° NNE
Terra 3.7 22:12:57 10° E 22:15:51 16° ENE 22:18:46 10° NNE
Cosmos 1437 Rocket 2.7 22:12:55 10° N 22:16:44 90° NE 22:20:34 10° S
CZ-4 SHROUD 3.1 22:14:01 11° SSE 22:16:56 77° ENE 22:20:05 10° N
Cosmos 1833 4.2 22:12:45 10° S 22:18:22 62° ESE 22:23:59 10° NNE
Cosmos 968 Rocket 4.2 22:14:46 10° SSW 22:19:52 58° WNW 22:25:03 10° NNE
Cosmos 2333 Rocket 4.3 22:16:55 10° NNE 22:20:03 15° NE 22:23:11 10° ENE
Cosmos 1151 Rocket 3.0 22:17:14 10° N 22:21:32 73° E 22:25:32 12° SSE
Cosmos 1300 4.1 22:19:46 10° NNE 22:22:59 25° ENE 22:25:08 16° ESE
COSMOS 2428 3.5 22:27:09 10° N 22:32:28 38° ENE 22:36:34 16° ESE
CZ-4C R/B 4.4 22:31:52 17° ESE 22:33:38 25° ENE 22:36:32 10° NNE
Nadezhda 2 Rocket 4.5 22:29:18 10° S 22:35:21 64° E 22:41:24 10° NNE
Envisat 3.7 22:31:33 10° S 22:36:28 51° W 22:41:26 10° NNW
H-2A R/B 3.6 22:32:39 10° SSW 22:36:47 35° W 22:40:57 10° NNW
Cosmos 1328 3.8 22:34:24 13° S 22:37:52 65° E 22:41:48 10° NNE
Cosmos 1707 Rocket 4.2 22:34:00 10° N 22:38:07 40° ENE 22:40:38 20° SE
DELTA 2 R/B (1) 3.7 22:36:22 10° W 22:41:50 60° SSW 22:45:58 18° ESE
Cosmos 1666 Rocket 4.2 22:39:51 20° SE 22:42:18 36° E 22:46:22 10° NNE
Cosmos 2112 Rocket 4.0 22:38:54 10° NNW 22:44:09 73° ENE 22:47:47 20° SSE
Cosmos 2058 3.0 22:42:56 18° SSE 22:45:48 56° E 22:49:49 10° NNE
ATLAS 2AS CENTAUR R/B 4.4 22:45:17 14° ESE 22:46:48 15° ESE 22:50:54 10° ENE
YAOGAN 6 2.8 22:46:03 17° S 22:48:42 67° WSW 22:52:19 10° NNW
SPOT 5 3.7 22:46:02 10° S 22:50:19 44° W 22:54:51 10° NNW
Cosmos 405 4.1 22:49:28 10° NNW 22:52:55 41° W 22:55:47 14° SSW
Cosmos 2219 Rocket 3.4 22:48:16 10° N 22:53:07 29° NE 22:56:41 16° ESE
Cosmos 2237 4.5 22:48:35 10° NNW 22:54:15 60° ENE 22:57:51 23° SE
Cosmos 1437 3.2 22:52:16 12° SSW 22:55:13 60° WNW 22:58:29 10° N
Cosmos 1937 Rocket 4.5 22:56:44 23° SE 22:58:31 28° E 23:02:56 10° NE
ARGOS 3.2 22:55:49 19° SSE 22:59:45 87° WSW 23:05:11 10° NNW
H-2A R/B 2.5 23:00:41 24° SE 23:03:43 53° ENE 23:09:00 10° N
BREEZE-M DEB (TANK) 3.9 23:03:20 10° NW 23:05:03 22° NNE 23:07:05 11° ENE
SL-14 R/B 3.2 23:05:19 29° S 23:07:11 66° E 23:11:10 10° NNE
Cosmos 1703 4.0 23:07:24 31° ESE 23:08:17 35° E 23:11:53 10° NNE
Meteor 1-27 4.2 23:03:18 10° N 23:09:02 85° ENE 23:12:32 24° SSE
IGS 5A 4.1 23:07:26 28° ESE 23:09:03 42° ENE 23:13:00 10° N
Cosmos 2219 3.2 23:03:37 10° SSW 23:09:22 86° ESE 23:15:09 10° NNE
SL-08 RB Rocket 3.7 23:08:39 25° S 23:11:13 76° WSW 23:15:43 10° NNW
NOSS 3-1 (C) 3.4 23:05:53 10° SSW 23:11:38 64° ESE 23:18:01 10° NE
Cosmos 1271 Rocket 3.2 23:10:06 10° N 23:13:47 46° ENE 23:14:50 36° ESE
Cosmos 2242 Rocket 3.7 23:10:20 10° N 23:14:45 60° E 23:16:33 34° SE
Cosmos 2333 4.3 23:09:43 10° NNW 23:15:25 66° ENE 23:18:26 28° SE
SPOT 1/Viking Rocket 4.2 23:12:05 17° S 23:15:50 51° W 23:20:52 10° NNW
Cosmos 2322 4.4 23:11:46 10° NW 23:17:16 48° WSW 23:20:54 20° S
DELTA 2 DEB (DPAF) 4.1 23:16:07 30° S 23:18:21 83° WSW 23:22:52 10° NNW
Cosmos 2237 Rocket 3.4 23:15:05 10° N 23:20:10 32° NE 23:23:15 20° ESE
Cosmos 1726 2.1 23:17:23 10° N 23:21:10 82° W 23:22:28 39° S
Cosmos 1680 Rocket 4.3 23:16:38 10° NNW 23:21:36 44° WSW 23:24:52 20° SSW
SAR-Lupe-2 3.8 23:22:48 44° ESE 23:23:35 57° ENE 23:27:06 10° N
Iridium 2 3.7 23:28:43 48° SSE 23:29:36 67° E 23:33:25 10° N
Cosmos 2360 Rocket 3.4 23:29:03 10° NW 23:34:03 34° WSW 23:37:27 18° SSW
Cosmos 2150 Rocket 4.0 23:31:21 21° SSW 23:35:04 87° ESE 23:40:35 10° NNE
Cosmos 1862 Rocket 4.0 23:32:10 10° N 23:36:23 45° ENE 23:37:19 39° ESE
Cosmos 1898 Rocket 3.4 23:33:17 23° SSW 23:36:33 88° ESE 23:41:47 10° NNE
Landsat 7 4.2 23:35:02 30° S 23:37:15 59° W 23:41:58 10° NNW
CARTOSAT-1 3.6 23:37:19 40° S 23:38:48 75° W 23:43:08 10° NNW
DMSP B5D2-2 4.0 23:34:35 10° NNE 23:39:51 83° ESE 23:42:28 31° S
Cosmos 1633 Rocket 3.6 23:42:16 25° SSW 23:44:39 54° W 23:48:58 10° N
Sich 1 3.8 23:42:31 22° SW 23:45:06 50° W 23:49:24 10° N
Cosmos 858 Rocket 4.4 23:42:00 25° SSW 23:45:07 86° WNW 23:50:22 10° NNE
Spot 4 3.8 23:44:35 42° SSE 23:46:17 88° WSW 23:51:10 10° NNW
Cosmos 292 Rocket 3.7 23:48:18 10° NNW 23:53:04 78° WSW 23:54:23 48° S
Terra 2.1 23:51:23 36° SSW 23:53:07 59° W 23:57:49 10° NNW
